Weather History for Cozumel, Mexico

Change the Weather History Date:

Monday, November 11, 2013

  Actual Average Record
Temperature  
Mean Temperature 75 °F -  
Max Temperature 82 °F 82 °F 89 °F (2006)
Min Temperature 68 °F 72 °F 59 °F (2010)
Cooling Degree Days 10    
Growing Degree Days 25 (Base 50)    
Moisture  
Dew Point 71 °F    
Average Humidity 91    
Maximum Humidity 100    
Minimum Humidity 70    
Precipitation  
Precipitation 0.15 in - - ()
Sea Level Pressure  
Sea Level Pressure 29.98 in    
Wind  
Wind Speed 2 mph ()    
Max Wind Speed 13 mph    
Max Gust Speed -    
Visibility 7.1 miles    
Events      
Averages and records for this station are not official NWS values.
T = Trace of Precipitation, MM = Missing Value Source: Averaged Metar Reports

Daily Weather History Graph

Daily Weather History Graph

Search for Another Location

Airport:

Trip Planner

Search our weather history database for the weather conditions in past years. The results will help you decide how hot, cold, wet, or windy it might be!

Date:

Astronomy

Nov. 11, 2013 Rise Set
Actual Time 5:55 AM CST 5:08 PM CST
Civil Twilight 5:31 AM CST 5:31 PM CST
Nautical Twilight 5:05 AM CST 5:57 PM CST
Astronomical Twilight 4:39 AM CST 6:24 PM CST
Moon 1:07 PM CST (11/11) 12:25 AM CST (11/11)
Length of Visible Light 11h 59m
Length of Day
11h 13m
Waxing Gibbous, 66% of the Moon is Illuminated
Nov 11
Waxing Gibbous
Nov 17
Full
Nov 25
Last Quarter
Dec 2
New
Dec 9
First Quarter

Hourly Weather History & Observations

Time (CST) Temp. Heat Index Dew Point Humidity Pressure Visibility Wind Dir Wind Speed Gust Speed Precip Events Conditions
12:40 AM 69.8 °F - 69.8 °F 100% 29.98 in 6.0 mi Calm Calm - N/A   Overcast
1:40 AM 69.8 °F - 69.8 °F 100% 29.96 in 6.0 mi Calm Calm - N/A   Overcast
2:40 AM 69.8 °F - 69.8 °F 100% 29.98 in 6.0 mi East 3.5 mph - N/A   Overcast
3:40 AM 69.8 °F - 69.8 °F 100% 29.95 in 6.0 mi Calm Calm - N/A   Mostly Cloudy
4:40 AM 68.0 °F - 68.0 °F 100% 29.96 in 7.0 mi Calm Calm - N/A   Mostly Cloudy
5:41 AM 68.0 °F - 68.0 °F 100% 29.95 in 6.0 mi Calm Calm - N/A   Mostly Cloudy
6:40 AM 68.0 °F - 68.0 °F 100% 29.99 in 7.0 mi ENE 4.6 mph - N/A   Mostly Cloudy
7:42 AM 73.4 °F - 71.6 °F 94% 30.01 in 7.0 mi Calm Calm - N/A   Mostly Cloudy
8:41 AM 75.2 °F - 71.6 °F 89% 30.05 in 7.0 mi East 3.5 mph - N/A   Mostly Cloudy
9:42 AM 80.6 °F 86.2 °F 75.2 °F 84% 30.02 in 8.0 mi East 9.2 mph - N/A   Mostly Cloudy
10:49 AM 82.4 °F 88.2 °F 73.4 °F 74% 30.01 in 8.0 mi ESE 8.1 mph - N/A   Mostly Cloudy
11:40 AM 82.4 °F 88.2 °F 73.4 °F 74% 29.98 in 8.0 mi East 9.2 mph - N/A   Mostly Cloudy
12:42 PM 82.4 °F 88.2 °F 73.4 °F 74% 29.96 in 8.0 mi East 12.7 mph - N/A   Mostly Cloudy
1:41 PM 82.4 °F 88.2 °F 73.4 °F 74% 29.94 in 8.0 mi ESE 11.5 mph - N/A   Mostly Cloudy
2:40 PM 82.4 °F 87.2 °F 71.6 °F 70% 29.97 in 8.0 mi East 6.9 mph - N/A   Mostly Cloudy
3:43 PM 78.8 °F - 71.6 °F 78% 29.93 in 8.0 mi East 4.6 mph - N/A   Mostly Cloudy
4:45 PM 75.2 °F - 71.6 °F 89% 29.94 in 8.0 mi Calm Calm - N/A   Mostly Cloudy
5:49 PM 73.4 °F - 71.6 °F 94% 29.93 in 7.0 mi East 4.6 mph - N/A   Scattered Clouds
6:51 PM 71.6 °F - 71.6 °F 100% 29.97 in 7.0 mi Calm Calm - N/A   Scattered Clouds
7:48 PM 71.6 °F - 71.6 °F 100% 29.99 in 7.0 mi Calm Calm - N/A   Scattered Clouds
8:45 PM 69.8 °F - 69.8 °F 100% 30.03 in 7.0 mi Calm Calm - N/A   Scattered Clouds
9:40 PM 69.8 °F - 69.8 °F 100% 30.01 in 7.0 mi Calm Calm - N/A   Scattered Clouds
10:40 PM 71.6 °F - 71.6 °F 100% 30.00 in 7.0 mi ENE 3.5 mph - N/A   Scattered Clouds
11:41 PM 71.6 °F - 69.8 °F 94% 29.98 in 7.0 mi Calm Calm - N/A   Scattered Clouds